Theta_e
350 351 352 354 353 352 351 349 350 351 351 351 350 351 352 352 351 351 351 351 351 351 351 351 351 350 350 351 351 351 348 349 348 348 350 347 348 348 348 347 347 347 348
348 351 350 351 353 353 351 347 343 344 344 348 351 351 351 352 352 352 352 352 352 351 351 352 350 349 350 351 348 347 349 349 349 346 345 348 348 345 345 345 346 348 348
349 350 349 347 353 354 351 341 339 340 343 342 345 352 351 351 351 352 352 352 353 351 352 350 349 346 349 351 348 348 347 350 349 349 348 347 346 344 345 348 343 347 348
350 352 348 346 348 352 350 344 341 339 342 344 346 351 350 351 351 352 352 352 351 351 351 349 348 346 347 350 348 349 350 348 347 346 343 347 347 342 343 348 348 346 344
351 353 347 347 351 352 347 345 344 346 349 349 349 350 349 350 351 351 352 352 351 352 352 349 349 349 349 349 346 349 346 347 343 336 343 342 343 348 347 345 347 348 346
350 349 349 347 354 355 349 348 345 346 350 349 350 351 352 349 351 352 351 351 351 351 352 348 347 350 350 344 344 344 343 345 346 340 336 343 345 348 345 342 348 347 338
349 350 353 347 350 355 353 353 349 346 351 352 351 352 350 350 350 351 351 351 351 351 351 346 348 350 349 343 342 342 344 347 347 348 348 337 344 346 345 346 347 346 343
348 349 351 353 349 350 353 352 352 350 351 352 352 351 350 352 351 351 351 351 350 351 348 347 349 349 350 344 342 343 346 348 345 346 343 331 344 347 349 346 336 337 334
348 350 349 351 354 354 354 354 352 352 353 352 352 349 347 349 349 350 351 349 349 351 347 348 350 347 347 342 340 342 343 346 345 343 335 337 342 348 351 341 336 343 345
346 348 346 345 352 354 352 353 352 352 353 352 352 351 347 349 347 351 348 348 350 350 348 350 350 347 341 340 339 339 341 345 346 343 341 337 339 346 351 347 341 337 345
350 347 344 342 348 350 352 352 351 353 352 352 352 352 351 351 348 350 346 345 350 348 351 347 349 349 344 337 335 335 340 342 346 347 347 343 335 336 347 343 337 331 341
348 347 345 344 342 347 349 349 347 350 352 352 349 348 347 348 349 348 345 344 351 351 352 350 343 347 343 335 334 337 338 341 344 345 346 346 336 333 346 341 340 342 338
336 347 346 345 345 345 347 348 350 350 352 352 350 348 343 344 344 347 346 349 351 351 351 348 349 342 336 336 339 340 340 339 342 344 347 346 339 339 336 337 334 339 346
337 338 347 346 348 347 346 347 351 349 351 349 348 346 347 344 343 349 348 348 349 350 348 350 342 347 344 338 338 339 342 344 339 344 347 346 340 340 337 332 331 333 335
336 335 343 347 348 350 350 348 349 348 348 347 347 345 345 346 347 349 348 348 348 348 346 345 345 343 342 341 338 342 347 346 345 345 347 345 342 342 342 341 338 335 334
338 335 338 344 349 351 351 351 350 350 344 345 345 346 348 348 347 349 348 348 348 347 345 344 344 346 346 343 341 346 347 348 347 346 347 346 345 344 343 344 344 342 341
338 338 338 337 339 346 343 343 347 349 349 349 349 348 349 348 348 348 349 349 348 347 347 344 346 348 348 348 347 347 345 346 346 348 348 347 345 346 345 345 345 344 343
339 341 342 341 341 341 341 342 344 346 347 348 349 348 348 348 348 348 348 347 348 348 348 348 347 347 347 347 347 347 346 347 347 347 347 347 346 346 346 345 346 346 344
347 346 345 347 348 345 343 344 344 344 346 347 346 346 348 348 347 348 347 347 348 347 348 348 348 349 348 347 347 347 346 347 348 347 348 347 347 347 346 346 346 346 345
351 349 351 351 350 347 347 349 347 347 344 346 348 348 349 348 349 348 347 347 346 346 346 347 348 348 348 347 346 346 346 346 347 347 348 348 348 347 347 347 347 347 347
354 353 353 352 351 350 348 347 347 348 347 347 348 348 348 346 346 345 346 346 347 346 344 345 345 346 346 347 347 345 345 344 344 345 344 345 345 345 346 345 346 346 347
355 355 354 353 351 350 344 347 347 348 348 345 345 346 348 348 348 347 347 346 346 346 342 342 346 345 346 344 344 342 339 341 343 344 344 344 345 345 344 344 346 346 346
355 354 354 353 351 350 344 346 348 349 349 350 349 349 348 349 348 348 347 347 346 344 343 342 343 344 344 344 345 342 338 340 337 344 342 344 344 344 344 345 345 346 344
355 354 354 353 351 350 347 346 348 350 350 350 349 347 348 346 347 346 346 348 347 345 342 343 341 339 341 343 343 344 342 340 338 339 342 342 345 344 343 340 340 341 344
354 353 353 353 351 350 349 348 349 350 349 347 346 346 346 345 346 345 346 345 347 346 343 340 342 343 342 341 341 341 342 343 341 336 337 337 341 342 340 339 341 343 343
353 351 352 351 351 350 350 349 347 349 348 343 346 346 345 345 346 346 346 345 346 344 342 342 341 343 341 341 341 341 342 342 342 340 338 338 338 338 339 337 339 340 342
Wind_Speed
20 24 22 19 18 19 19 20 21 21 20 19 19 18 18 17 18 18 16 16 15 14 13 13 13 13 15 15 15 15 17 19 18 18 18 16 16 16 16 17 16 16 15
30 29 26 22 19 19 19 19 20 20 20 18 19 18 17 16 15 16 15 15 14 14 14 14 13 12 14 16 16 16 18 18 19 19 16 16 17 15 15 15 16 16 15
30 29 27 25 22 19 18 19 18 18 17 17 16 16 15 14 13 14 14 14 14 13 13 13 12 13 14 15 17 17 18 19 18 17 16 17 16 15 15 14 15 14 14
30 29 27 25 23 21 18 18 18 17 16 15 14 14 13 13 13 13 13 13 13 12 12 12 12 13 13 14 15 17 18 17 16 15 17 19 15 14 15 13 16 14 13
30 28 28 24 22 19 19 17 16 16 15 15 13 13 13 13 12 11 11 11 12 12 12 12 12 13 12 13 15 17 17 16 14 14 14 16 16 14 14 16 13 14 14
28 28 27 24 20 18 18 17 16 16 14 14 13 12 12 12 11 11 10 11 11 11 12 11 12 13 12 14 16 16 14 12 10 10 10 15 16 15 16 14 14 12 12
29 26 23 24 22 18 17 16 16 16 14 13 13 12 11 12 12 11 11 11 11 11 10 11 12 12 12 13 14 14 11 7 8 11 11 14 15 16 17 14 12 14 11
29 28 26 22 22 20 19 17 17 16 15 13 12 13 12 12 12 12 12 11 11 10 10 11 10 11 11 12 12 12 9 5 8 12 16 15 16 12 15 15 14 14 12
27 26 24 21 19 21 20 19 18 17 16 14 12 12 12 12 12 12 11 12 11 10 10 11 10 11 11 12 12 10 8 5 9 13 13 13 12 13 14 13 13 14 13
26 26 22 21 22 21 21 19 18 17 16 14 12 12 13 12 11 12 11 11 12 11 10 10 10 10 11 11 11 10 7 5 7 14 11 12 12 14 14 13 13 14 13
25 26 24 25 24 23 22 21 19 18 16 15 14 12 12 12 12 11 11 10 11 11 10 10 9 10 10 10 10 8 7 7 7 7 12 13 13 13 15 15 15 14 14
25 26 26 25 25 25 24 23 21 19 18 17 16 15 14 13 12 10 9 10 9 10 10 10 10 10 9 10 10 9 10 8 5 5 6 15 15 14 15 15 15 15 14
26 26 27 26 25 24 24 23 22 22 20 19 17 16 14 14 12 11 10 11 11 11 11 11 11 11 11 11 10 9 9 8 7 4 4 14 16 12 14 15 16 15 15
26 24 27 27 26 25 24 24 23 23 22 21 19 18 17 16 15 13 13 13 14 14 13 14 13 12 11 10 10 10 8 7 7 6 8 14 17 12 13 14 16 16 16
29 25 28 29 28 26 25 24 23 23 22 21 20 19 18 17 18 15 15 15 15 15 15 15 14 14 13 13 12 12 10 10 11 11 9 15 18 15 13 14 15 15 16
34 29 26 30 28 27 25 24 24 24 23 22 21 20 20 19 19 16 17 16 16 16 15 16 15 13 12 12 14 14 15 12 12 15 11 18 17 17 16 16 13 16 16
39 32 28 31 29 28 25 23 24 23 24 22 22 21 20 20 20 19 18 18 19 18 17 16 16 16 16 15 16 17 13 14 13 15 14 20 20 16 19 17 17 16 16
34 34 30 28 28 28 25 21 24 21 21 24 23 23 21 23 22 21 21 21 20 20 19 19 18 18 18 16 16 16 17 16 15 16 15 16 23 22 20 20 18 18 18
36 35 32 29 27 26 25 21 23 20 20 20 20 21 21 20 21 22 23 22 22 21 22 19 22 21 19 18 17 17 16 17 15 15 18 19 19 21 21 24 22 21 23
35 34 33 29 25 24 22 19 20 21 22 19 21 20 18 18 19 21 22 22 22 20 19 22 23 23 20 19 16 15 16 17 17 15 15 15 15 17 16 19 21 26 26
31 33 34 31 27 25 23 21 20 22 23 22 20 20 20 19 19 23 25 24 22 25 18 19 23 21 21 17 12 11 14 17 15 16 15 13 14 15 17 18 20 23 25
33 35 34 32 30 28 25 23 18 19 18 21 19 19 17 17 18 22 23 23 22 20 17 17 22 20 22 18 7 3 1 4 12 15 15 14 14 14 17 18 18 19 20
30 35 36 34 32 28 25 22 15 14 12 15 17 18 20 18 18 20 22 25 24 24 21 19 19 18 17 14 17 5 1 4 2 5 7 9 9 9 11 12 12 15 17
31 33 34 35 33 28 26 25 22 17 14 14 18 16 15 16 14 14 16 21 26 28 24 17 17 19 18 14 12 17 10 3 3 1 5 5 8 8 8 8 8 9 12
27 33 34 33 32 29 29 26 25 20 17 11 13 12 15 14 13 13 12 15 22 27 27 28 19 21 20 19 19 9 19 13 9 3 3 4 9 11 11 9 8 9 10
23 26 31 32 31 29 29 27 25 23 18 14 12 12 11 12 11 10 10 11 16 20 24 26 24 20 18 19 19 21 17 7 8 5 2 4 7 10 13 10 9 10 8
Wind_Direction
176 166 168 155 149 144 142 139 134 131 127 127 126 124 125 127 125 128 134 132 132 127 122 121 121 120 120 121 123 125 122 120 123 124 123 125 124 119 119 121 123 124 120
163 169 164 157 152 150 147 146 142 136 131 130 129 127 129 125 125 128 131 138 135 128 124 126 121 124 126 124 125 127 125 126 126 125 127 132 127 125 127 132 128 124 128
165 168 167 158 155 152 151 151 149 143 135 130 130 130 130 129 130 126 126 127 136 134 132 129 126 126 129 132 128 128 129 128 127 128 134 142 133 125 132 132 131 132 123
166 167 169 163 160 154 155 156 154 149 140 133 133 132 133 132 128 128 130 128 136 139 138 129 131 124 133 127 132 132 129 133 136 133 129 136 137 130 135 131 138 135 133
165 169 169 168 162 159 157 157 158 153 148 142 138 139 139 137 136 134 132 136 140 143 140 137 136 132 137 133 139 138 133 132 135 134 137 141 139 137 141 140 133 134 139
164 170 169 172 167 163 164 163 160 159 155 149 143 144 146 143 144 145 144 147 144 148 146 141 142 140 142 139 139 131 136 136 148 144 148 151 144 144 143 150 143 144 146
165 166 172 175 174 169 169 168 165 164 162 159 151 154 156 153 152 155 153 153 145 153 147 147 147 146 152 148 141 133 130 140 183 205 203 167 153 155 149 150 154 155 155
166 170 171 176 176 174 170 172 171 170 168 168 164 159 164 171 166 158 160 157 156 156 155 152 155 156 160 159 143 141 139 125 153 168 173 170 162 164 162 164 164 168 164
172 174 171 174 172 169 171 173 174 175 173 174 174 166 168 178 175 165 171 164 161 160 163 164 166 166 170 165 156 158 135 110 159 168 177 176 174 176 176 176 174 168 170
179 178 173 178 173 174 170 175 175 181 177 178 180 175 170 176 180 174 178 171 169 171 171 176 177 179 181 175 173 170 131 127 148 191 195 191 183 191 187 188 183 180 181
181 181 179 180 180 178 176 176 179 182 183 181 178 176 170 176 180 175 182 184 178 179 179 184 182 193 188 186 186 171 168 166 163 199 227 211 200 206 196 197 196 191 186
182 185 182 183 185 184 183 180 185 183 185 187 187 182 186 183 182 188 189 188 189 194 192 188 198 205 197 193 194 185 207 194 194 229 234 207 206 214 207 207 205 204 201
182 180 184 187 188 188 190 185 189 186 192 192 196 192 189 193 196 197 202 202 196 201 198 200 203 209 208 202 206 202 206 211 216 254 277 204 205 222 216 215 215 214 212
187 185 186 189 194 195 196 197 198 195 196 199 201 201 196 199 205 208 215 214 213 208 208 208 211 215 217 220 217 217 213 228 233 233 267 214 209 215 229 218 218 219 218
193 193 195 193 196 199 199 202 204 206 208 208 208 205 205 205 206 212 213 216 219 218 218 213 215 221 223 223 222 225 233 242 232 237 263 212 214 217 226 230 225 224 224
195 198 196 197 197 199 203 206 209 211 212 213 216 211 211 214 214 216 217 220 221 223 223 219 217 221 223 225 226 232 243 247 251 248 249 216 220 226 229 230 235 235 232
196 196 195 198 200 200 201 208 211 215 216 215 216 221 222 222 223 224 226 226 223 226 224 224 227 236 236 233 239 248 247 249 248 240 257 226 223 235 231 236 231 238 244
193 197 195 197 198 201 204 205 205 210 217 219 222 224 230 231 229 229 230 232 231 230 231 228 229 234 233 235 241 241 249 250 250 246 249 237 228 238 239 240 242 244 247
196 194 194 198 199 201 202 208 206 213 218 218 216 221 225 226 229 229 229 230 226 228 229 232 230 229 233 235 237 245 247 251 255 255 244 242 243 244 249 243 244 246 247
194 195 193 194 197 196 198 202 209 215 219 219 216 216 219 224 226 227 231 235 233 225 226 226 224 226 230 234 232 238 250 251 255 256 242 247 241 241 248 255 258 252 251
190 193 194 190 193 191 193 193 199 209 214 216 219 221 227 230 232 235 237 235 232 235 222 224 222 223 224 222 215 244 252 252 249 251 252 250 250 247 254 260 254 253 251
189 195 195 194 191 194 196 192 194 204 214 220 224 225 227 233 232 231 235 238 232 234 222 222 216 221 227 222 197 175 284 265 241 245 247 249 249 244 252 255 251 247 247
187 194 195 196 194 196 197 193 194 195 212 217 223 227 232 236 240 239 240 242 237 229 225 224 220 220 230 220 213 179 117 226 190 219 221 230 235 230 243 250 251 252 253
191 194 198 198 196 198 195 194 197 199 203 221 222 231 234 239 241 246 247 241 237 225 212 222 231 226 227 211 216 222 228 186 184 225 226 209 205 205 216 229 240 247 256
185 188 196 200 199 199 198 200 203 207 210 217 225 230 231 236 241 247 256 248 233 224 227 225 235 223 224 225 217 207 231 234 230 151 219 221 219 220 218 233 251 261 260
183 184 193 198 201 202 201 204 209 211 217 225 222 228 232 236 249 262 266 246 229 230 224 226 222 224 228 234 236 235 224 197 200 183 190 210 220 237 229 244 260 263 267